StationID,Date,MaxTemp,MinTemp,Precipitation,Snowfall,SnowDepth
"CA004057118","1941-04-01",32.00,23.00,0.00,0.00,
"CA004057118","1941-04-02",23.00,14.00,0.00,0.00,
"CA004057118","1941-04-03",35.06,19.94,0.00,0.00,
"CA004057118","1941-04-04",42.98,30.02,0.00,0.00,
"CA004057118","1941-04-05",42.98,30.02,0.00,0.00,
"CA004057118","1941-04-06",46.94,33.08,0.00,0.00,
"CA004057118","1941-04-07",55.04,28.04,0.00,0.00,
"CA004057118","1941-04-08",55.04,28.04,0.00,0.00,
"CA004057118","1941-04-09",46.94,26.96,0.00,0.00,
"CA004057118","1941-04-10",60.08,35.96,0.00,0.00,
"CA004057118","1941-04-11",46.04,37.94,13.00,0.00,
"CA004057118","1941-04-12",53.96,41.00,0.00,0.00,
"CA004057118","1941-04-13",51.08,32.00,20.00,0.00,
"CA004057118","1941-04-14",62.06,26.96,0.00,0.00,
"CA004057118","1941-04-15",71.96,37.94,0.00,0.00,
"CA004057118","1941-04-16",44.06,33.08,0.00,0.00,
"CA004057118","1941-04-17",28.94,24.98,89.00,89.00,
"CA004057118","1941-04-18",46.94,17.96,0.00,0.00,
"CA004057118","1941-04-19",53.06,28.04,0.00,0.00,
"CA004057118","1941-04-20",44.96,21.92,15.00,0.00,
"CA004057118","1941-04-21",44.06,33.98,0.00,0.00,
"CA004057118","1941-04-22",53.96,35.06,0.00,0.00,
"CA004057118","1941-04-23",69.98,26.96,0.00,0.00,
"CA004057118","1941-04-24",48.02,37.94,0.00,0.00,
"CA004057118","1941-04-25",68.00,23.00,0.00,0.00,
"CA004057118","1941-04-26",73.94,35.96,0.00,0.00,
"CA004057118","1941-04-27",73.94,42.08,3.00,0.00,
"CA004057118","1941-04-28",71.06,44.96,0.00,0.00,
"CA004057118","1941-04-29",64.04,35.96,0.00,0.00,
"CA004057118","1941-04-30",69.08,37.04,0.00,0.00,
"CA004057118","1941-05-01",71.06,41.00,0.00,0.00,
"CA004057118","1941-05-02",78.98,46.04,30.00,0.00,
"CA004057118","1941-05-03",78.98,46.04,0.00,0.00,
"CA004057118","1941-05-04",68.00,44.96,15.00,0.00,
"CA004057118","1941-05-05",71.06,48.02,23.00,0.00,
"CA004057118","1941-05-06",46.94,35.06,10.00,8.00,
"CA004057118","1941-05-07",37.94,28.94,10.00,10.00,
"CA004057118","1941-05-08",42.98,24.98,0.00,0.00,
"CA004057118","1941-05-09",57.02,30.92,0.00,0.00,
"CA004057118","1941-05-10",69.98,32.00,0.00,0.00,
"CA004057118","1941-05-11",78.98,42.08,0.00,0.00,
"CA004057118","1941-05-12",78.08,50.00,0.00,0.00,
"CA004057118","1941-05-13",55.04,39.02,0.00,0.00,
"CA004057118","1941-05-14",48.92,30.02,0.00,0.00,
"CA004057118","1941-05-15",62.06,33.98,0.00,0.00,
"CA004057118","1941-05-16",71.06,37.94,5.00,0.00,
"CA004057118","1941-05-17",80.06,46.04,36.00,0.00,
"CA004057118","1941-05-18",64.04,51.98,0.00,0.00,
"CA004057118","1941-05-19",64.94,37.04,0.00,0.00,
"CA004057118","1941-05-20",62.96,37.04,0.00,0.00,
"CA004057118","1941-05-21",60.08,37.94,0.00,0.00,
"CA004057118","1941-05-22",64.94,33.08,0.00,0.00,
"CA004057118","1941-05-23",82.04,33.98,0.00,0.00,
"CA004057118","1941-05-24",89.06,51.98,0.00,0.00,
"CA004057118","1941-05-25",59.00,48.02,8.00,0.00,
"CA004057118","1941-05-26",57.02,39.02,8.00,0.00,
"CA004057118","1941-05-27",46.04,39.92,20.00,0.00,
"CA004057118","1941-05-28",48.02,39.02,86.00,0.00,
"CA004057118","1941-05-29",62.06,46.04,3.00,0.00,
"CA004057118","1941-05-30",69.08,48.92,0.00,0.00,
"CA004057118","1941-05-31",66.92,46.94,152.00,0.00,
"CA004057118","1941-06-01",48.02,46.04,157.00,0.00,
"CA004057118","1941-06-02",48.92,44.06,76.00,0.00,
"CA004057118","1941-06-03",64.94,42.98,3.00,0.00,
"CA004057118","1941-06-04",66.92,42.08,3.00,0.00,
"CA004057118","1941-06-05",71.06,44.06,0.00,0.00,
"CA004057118","1941-06-06",60.98,42.08,0.00,0.00,
"CA004057118","1941-06-07",66.02,35.06,0.00,0.00,
"CA004057118","1941-06-08",73.04,37.04,0.00,0.00,
"CA004057118","1941-06-09",62.96,42.98,28.00,0.00,
"CA004057118","1941-06-10",71.96,51.08,0.00,0.00,
"CA004057118","1941-06-11",75.92,48.92,0.00,0.00,
"CA004057118","1941-06-12",73.04,39.02,0.00,0.00,
"CA004057118","1941-06-13",77.00,44.96,0.00,0.00,
"CA004057118","1941-06-14",82.94,53.96,0.00,0.00,
"CA004057118","1941-06-15",82.94,57.92,0.00,0.00,
"CA004057118","1941-06-16",80.06,55.04,0.00,0.00,
"CA004057118","1941-06-17",78.98,51.08,8.00,0.00,
"CA004057118","1941-06-18",82.94,50.00,0.00,0.00,
"CA004057118","1941-06-19",78.08,53.96,3.00,0.00,
"CA004057118","1941-06-20",75.02,48.02,0.00,0.00,
"CA004057118","1941-06-21",78.08,44.96,0.00,0.00,
"CA004057118","1941-06-22",87.98,53.06,0.00,0.00,
"CA004057118","1941-06-23",102.02,60.08,0.00,0.00,
"CA004057118","1941-06-24",102.02,71.06,18.00,0.00,
"CA004057118","1941-06-25",87.08,66.02,0.00,0.00,
"CA004057118","1941-06-26",82.94,53.96,0.00,0.00,
"CA004057118","1941-06-27",78.98,51.08,0.00,0.00,
"CA004057118","1941-06-28",82.94,48.92,15.00,0.00,
"CA004057118","1941-06-29",62.06,57.92,117.00,0.00,
"CA004057118","1941-06-30",69.98,51.08,0.00,0.00,
"CA004057118","1941-07-01",73.94,42.98,0.00,0.00,
"CA004057118","1941-07-02",75.92,50.00,0.00,0.00,
"CA004057118","1941-07-03",80.96,48.92,46.00,0.00,
"CA004057118","1941-07-04",77.00,62.06,18.00,0.00,
"CA004057118","1941-07-05",84.02,55.04,0.00,0.00,
"CA004057118","1941-07-06",82.04,59.00,0.00,0.00,
"CA004057118","1941-07-07",87.08,57.02,0.00,0.00,
"CA004057118","1941-07-08",84.02,62.96,0.00,0.00,
"CA004057118","1941-07-09",75.02,50.00,15.00,0.00,
"CA004057118","1941-07-10",71.96,48.02,0.00,0.00,
"CA004057118","1941-07-11",78.98,41.00,0.00,0.00,
"CA004057118","1941-07-12",86.00,46.94,0.00,0.00,
"CA004057118","1941-07-13",84.02,50.00,0.00,0.00,
"CA004057118","1941-07-14",78.08,53.96,0.00,0.00,
"CA004057118","1941-07-15",89.06,51.08,0.00,0.00,
"CA004057118","1941-07-16",96.08,64.94,0.00,0.00,
"CA004057118","1941-07-17",84.92,68.00,0.00,0.00,
"CA004057118","1941-07-18",96.08,51.98,0.00,0.00,
"CA004057118","1941-07-19",102.02,66.02,0.00,0.00,
"CA004057118","1941-07-20",82.94,66.92,0.00,0.00,
"CA004057118","1941-07-21",80.96,57.02,56.00,0.00,
"CA004057118","1941-07-22",78.98,55.04,0.00,0.00,
"CA004057118","1941-07-23",77.00,50.00,0.00,0.00,
"CA004057118","1941-07-24",75.92,51.08,0.00,0.00,
"CA004057118","1941-07-25",73.94,60.98,0.00,0.00,
"CA004057118","1941-07-26",93.02,57.02,0.00,0.00,
"CA004057118","1941-07-27",95.00,62.06,58.00,0.00,
"CA004057118","1941-07-28",82.94,59.00,0.00,0.00,
"CA004057118","1941-07-29",84.92,62.06,53.00,0.00,
"CA004057118","1941-07-30",82.04,62.06,0.00,0.00,
"CA004057118","1941-07-31",89.96,55.94,38.00,0.00,
"CA004057118","1941-08-01",75.02,57.02,0.00,0.00,
"CA004057118","1941-08-02",78.98,48.92,0.00,0.00,
"CA004057118","1941-08-03",82.04,55.04,0.00,0.00,
"CA004057118","1941-08-04",93.02,62.96,41.00,0.00,
"CA004057118","1941-08-05",78.08,62.06,0.00,0.00,
"CA004057118","1941-08-06",82.04,46.94,0.00,0.00,
"CA004057118","1941-08-07",82.94,55.94,0.00,0.00,
"CA004057118","1941-08-08",75.92,51.08,23.00,0.00,
"CA004057118","1941-08-09",84.02,50.00,0.00,0.00,
"CA004057118","1941-08-10",91.04,62.06,0.00,0.00,
"CA004057118","1941-08-11",84.02,50.00,0.00,0.00,
"CA004057118","1941-08-12",86.00,53.06,0.00,0.00,
"CA004057118","1941-08-13",89.96,62.06,0.00,0.00,
"CA004057118","1941-08-14",78.98,62.96,0.00,0.00,
"CA004057118","1941-08-15",80.96,44.06,0.00,0.00,
"CA004057118","1941-08-16",64.04,55.94,127.00,0.00,
"CA004057118","1941-08-17",71.06,53.96,0.00,0.00,
"CA004057118","1941-08-18",75.92,51.08,0.00,0.00,
"CA004057118","1941-08-19",78.08,53.96,0.00,0.00,
"CA004057118","1941-08-20",78.98,51.08,0.00,0.00,
"CA004057118","1941-08-21",75.92,51.08,8.00,0.00,
"CA004057118","1941-08-22",77.00,48.92,0.00,0.00,
"CA004057118","1941-08-23",62.06,48.02,18.00,0.00,
"CA004057118","1941-08-24",69.98,53.96,0.00,0.00,
"CA004057118","1941-08-25",66.02,37.94,0.00,0.00,
"CA004057118","1941-08-26",69.08,32.00,0.00,0.00,
"CA004057118","1941-08-27",73.04,39.92,5.00,0.00,
"CA004057118","1941-08-28",53.06,50.00,97.00,0.00,
"CA004057118","1941-08-29",69.98,42.08,0.00,0.00,
"CA004057118","1941-08-30",66.92,44.06,0.00,0.00,
"CA004057118","1941-08-31",71.96,50.00,0.00,0.00,
"CA004057118","1941-09-01",68.00,50.00,0.00,0.00,
"CA004057118","1941-09-02",62.06,33.08,3.00,0.00,
"CA004057118","1941-09-03",62.06,44.96,10.00,0.00,
"CA004057118","1941-09-04",71.96,53.96,0.00,0.00,
"CA004057118","1941-09-05",64.94,48.02,0.00,0.00,
"CA004057118","1941-09-06",55.04,41.00,8.00,0.00,
"CA004057118","1941-09-07",51.08,42.98,0.00,0.00,
"CA004057118","1941-09-08",60.98,42.08,0.00,0.00,
"CA004057118","1941-09-09",62.96,28.04,0.00,0.00,
"CA004057118","1941-09-10",69.98,35.96,0.00,0.00,
"CA004057118","1941-09-11",69.08,46.94,0.00,0.00,
"CA004057118","1941-09-12",53.96,48.02,99.00,0.00,
"CA004057118","1941-09-13",66.02,41.00,5.00,0.00,
"CA004057118","1941-09-14",68.00,35.06,0.00,0.00,
"CA004057118","1941-09-15",66.02,42.08,5.00,0.00,
"CA004057118","1941-09-16",62.96,35.06,0.00,0.00,
"CA004057118","1941-09-17",73.04,44.06,8.00,0.00,
"CA004057118","1941-09-18",62.96,46.04,3.00,0.00,
"CA004057118","1941-09-19",51.08,42.98,5.00,0.00,
"CA004057118","1941-09-20",51.98,37.94,0.00,0.00,
"CA004057118","1941-09-21",59.00,33.08,0.00,0.00,
"CA004057118","1941-09-22",68.00,30.92,0.00,0.00,
"CA004057118","1941-09-23",48.92,41.00,0.00,0.00,
"CA004057118","1941-09-24",41.00,32.00,0.00,0.00,
"CA004057118","1941-09-25",48.92,21.92,36.00,0.00,
"CA004057118","1941-09-26",35.06,24.98,0.00,0.00,
"CA004057118","1941-09-27",48.92,15.98,0.00,0.00,
"CA004057118","1941-09-28",64.04,24.98,0.00,0.00,
"CA004057118","1941-09-29",64.04,32.00,0.00,0.00,
"CA004057118","1941-09-30",57.92,39.92,5.00,0.00,
"CA004057118","1941-10-01",46.04,39.92,69.00,0.00,
"CA004057118","1941-10-02",48.02,32.00,0.00,0.00,
"CA004057118","1941-10-03",59.00,35.06,8.00,0.00,
"CA004057118","1941-10-04",35.96,32.00,15.00,0.00,
"CA004057118","1941-10-05",33.98,28.04,0.00,0.00,
"CA004057118","1941-10-06",53.06,28.04,0.00,0.00,
"CA004057118","1941-10-07",60.98,28.94,3.00,0.00,
"CA004057118","1941-10-08",48.02,37.04,8.00,0.00,
"CA004057118","1941-10-09",51.08,24.98,0.00,0.00,
"CA004057118","1941-10-10",62.96,33.08,0.00,0.00,
"CA004057118","1941-10-11",66.02,28.04,0.00,0.00,
"CA004057118","1941-10-12",60.08,39.02,0.00,0.00,
"CA004057118","1941-10-13",60.08,33.98,0.00,0.00,
"CA004057118","1941-10-14",57.92,33.08,0.00,0.00,
"CA004057118","1941-10-15",64.94,30.02,0.00,0.00,
"CA004057118","1941-10-16",66.92,28.94,0.00,0.00,
"CA004057118","1941-10-17",66.02,48.02,0.00,0.00,
"CA004057118","1941-10-18",66.02,32.00,0.00,0.00,
"CA004057118","1941-10-19",64.04,33.98,0.00,0.00,
"CA004057118","1941-10-20",62.96,30.02,0.00,0.00,
"CA004057118","1941-10-21",62.96,30.92,0.00,0.00,
"CA004057118","1941-10-22",55.04,37.94,0.00,0.00,
"CA004057118","1941-10-23",59.00,28.04,0.00,0.00,
"CA004057118","1941-10-24",60.08,30.02,0.00,0.00,
"CA004057118","1941-10-25",64.04,32.00,0.00,0.00,
"CA004057118","1941-10-26",35.96,30.02,0.00,0.00,
"CA004057118","1941-10-27",33.98,6.08,0.00,0.00,
"CA004057118","1941-10-28",30.02,12.92,66.00,66.00,
"CA004057118","1941-10-29",32.00,1.94,0.00,0.00,
"CA004057118","1941-10-30",39.92,8.96,0.00,0.00,
"CA004057118","1941-10-31",51.08,21.92,0.00,0.00,
"CA004057118","1941-11-01",37.94,26.96,23.00,0.00,
"CA004057118","1941-11-02",44.96,26.06,51.00,51.00,
"CA004057118","1941-11-03",33.08,26.06,15.00,15.00,
"CA004057118","1941-11-04",28.94,26.96,0.00,0.00,
"CA004057118","1941-11-05",37.94,26.96,8.00,8.00,
"CA004057118","1941-11-06",39.92,26.06,3.00,0.00,
"CA004057118","1941-11-07",42.08,21.92,0.00,0.00,
"CA004057118","1941-11-08",30.92,23.00,13.00,13.00,
"CA004057118","1941-11-09",39.02,24.08,0.00,0.00,
"CA004057118","1941-11-10",39.92,19.94,0.00,0.00,
"CA004057118","1941-11-11",51.98,24.08,0.00,0.00,
"CA004057118","1941-11-12",44.96,28.94,0.00,0.00,
"CA004057118","1941-11-13",44.06,17.06,0.00,0.00,
"CA004057118","1941-11-14",51.98,37.04,0.00,0.00,
"CA004057118","1941-11-15",41.00,24.08,25.00,25.00,
"CA004057118","1941-11-16",30.02,26.96,43.00,43.00,
"CA004057118","1941-11-17",26.96,17.96,0.00,0.00,
"CA004057118","1941-11-18",28.94,21.92,0.00,0.00,
"CA004057118","1941-11-19",28.04,23.00,3.00,3.00,
"CA004057118","1941-11-20",32.00,8.06,46.00,46.00,
"CA004057118","1941-11-21",17.96,3.02,0.00,0.00,
"CA004057118","1941-11-22",3.92,-18.04,0.00,0.00,
"CA004057118","1941-11-23",28.04,-5.98,0.00,0.00,
"CA004057118","1941-11-24",39.92,6.98,0.00,0.00,
"CA004057118","1941-11-25",42.08,26.06,0.00,0.00,
"CA004057118","1941-11-26",37.04,19.04,0.00,0.00,
"CA004057118","1941-11-27",21.02,17.06,0.00,0.00,
"CA004057118","1941-11-28",10.04,3.92,8.00,8.00,
"CA004057118","1941-11-29",32.00,3.02,3.00,3.00,
"CA004057118","1941-11-30",51.98,10.04,0.00,0.00,
"CA004057118","1941-12-01",41.00,26.96,0.00,0.00,
"CA004057118","1941-12-02",53.96,23.00,0.00,0.00,
"CA004057118","1941-12-03",53.06,33.08,0.00,0.00,
"CA004057118","1941-12-04",24.08,17.06,0.00,0.00,
"CA004057118","1941-12-05",26.96,6.08,0.00,0.00,
"CA004057118","1941-12-06",37.94,15.08,8.00,8.00,
"CA004057118","1941-12-07",32.00,19.94,3.00,3.00,
"CA004057118","1941-12-08",10.94,5.00,36.00,36.00,
"CA004057118","1941-12-09",-4.00,-16.06,0.00,0.00,
"CA004057118","1941-12-10",6.98,-23.08,0.00,0.00,
"CA004057118","1941-12-11",15.98,1.04,8.00,8.00,
"CA004057118","1941-12-12",15.08,10.04,0.00,0.00,
"CA004057118","1941-12-13",23.00,-7.96,0.00,0.00,
"CA004057118","1941-12-14",12.92,-11.02,0.00,0.00,
"CA004057118","1941-12-15",23.00,-4.00,0.00,0.00,
"CA004057118","1941-12-16",39.92,3.02,0.00,0.00,
"CA004057118","1941-12-17",35.96,26.06,0.00,0.00,
"CA004057118","1941-12-18",26.96,3.02,0.00,0.00,
"CA004057118","1941-12-19",37.94,-2.02,0.00,0.00,
"CA004057118","1941-12-20",26.06,3.92,0.00,0.00,
"CA004057118","1941-12-21",32.00,12.02,0.00,0.00,
"CA004057118","1941-12-22",28.04,8.96,0.00,0.00,
"CA004057118","1941-12-23",30.02,3.92,0.00,0.00,
"CA004057118","1941-12-24",19.94,10.04,0.00,0.00,
"CA004057118","1941-12-25",5.00,1.94,0.00,0.00,
"CA004057118","1941-12-26",8.96,-7.96,0.00,0.00,
"CA004057118","1941-12-27",12.92,-9.94,0.00,0.00,
"CA004057118","1941-12-28",12.92,-7.06,0.00,0.00,
"CA004057118","1941-12-29",1.04,-11.02,3.00,3.00,
"CA004057118","1941-12-30",-9.94,-16.06,3.00,3.00,
"CA004057118","1941-12-31",-7.96,-25.96,0.00,0.00,
"CA004057118","1942-01-01",10.04,-20.02,64.00,64.00,
"CA004057118","1942-01-02",-5.98,-16.96,0.00,0.00,
"CA004057118","1942-01-03",-13.00,-36.04,3.00,3.00,
"CA004057118","1942-01-04",-16.96,-27.94,0.00,0.00,
"CA004057118","1942-01-05",-4.00,-27.04,0.00,0.00,
"CA004057118","1942-01-06",-5.98,-36.04,0.00,0.00,
"CA004057118","1942-01-07",6.08,-27.94,5.00,5.00,
"CA004057118","1942-01-08",3.02,-9.04,5.00,5.00,
"CA004057118","1942-01-09",23.00,-29.02,0.00,0.00,
"CA004057118","1942-01-10",26.96,5.00,0.00,0.00,
"CA004057118","1942-01-11",41.00,23.00,0.00,0.00,
"CA004057118","1942-01-12",39.02,23.00,0.00,0.00,
"CA004057118","1942-01-13",39.92,30.02,3.00,0.00,
"CA004057118","1942-01-14",39.02,19.94,0.00,0.00,
"CA004057118","1942-01-15",44.06,15.08,0.00,0.00,
"CA004057118","1942-01-16",42.08,15.98,0.00,0.00,
"CA004057118","1942-01-17",39.92,17.96,0.00,0.00,
"CA004057118","1942-01-18",35.06,15.08,0.00,0.00,
"CA004057118","1942-01-19",33.98,15.08,0.00,0.00,
"CA004057118","1942-01-20",37.04,12.92,0.00,0.00,
"CA004057118","1942-01-21",39.02,15.08,0.00,0.00,
"CA004057118","1942-01-22",44.96,15.08,0.00,0.00,
"CA004057118","1942-01-23",30.02,12.02,0.00,0.00,
"CA004057118","1942-01-24",19.04,10.94,0.00,0.00,
"CA004057118","1942-01-25",33.08,6.98,0.00,0.00,
"CA004057118","1942-01-26",30.02,14.00,0.00,0.00,
"CA004057118","1942-01-27",37.94,12.92,0.00,0.00,
"CA004057118","1942-01-28",19.04,15.98,0.00,0.00,
"CA004057118","1942-01-29",23.00,15.08,3.00,3.00,
"CA004057118","1942-01-30",19.04,12.02,3.00,3.00,
"CA004057118","1942-01-31",19.04,12.92,0.00,0.00,
"CA004057118","1942-02-01",24.08,12.02,0.00,0.00,
"CA004057118","1942-02-02",23.00,17.96,3.00,3.00,
"CA004057118","1942-02-03",24.98,15.08,10.00,10.00,
"CA004057118","1942-02-04",28.04,19.94,3.00,3.00,
"CA004057118","1942-02-05",21.02,8.96,15.00,15.00,
"CA004057118","1942-02-06",21.92,-7.96,0.00,0.00,
"CA004057118","1942-02-07",17.06,3.02,0.00,0.00,
"CA004057118","1942-02-08",17.96,12.02,10.00,10.00,
"CA004057118","1942-02-09",24.98,14.00,0.00,0.00,
"CA004057118","1942-02-10",24.08,17.96,0.00,0.00,
"CA004057118","1942-02-11",24.08,5.00,5.00,5.00,
"CA004057118","1942-02-12",30.02,15.98,10.00,10.00,
"CA004057118","1942-02-13",17.96,-5.08,0.00,0.00,
"CA004057118","1942-02-14",23.00,-9.04,25.00,25.00,
"CA004057118","1942-02-15",23.00,3.02,25.00,25.00,
"CA004057118","1942-02-16",-14.08,-18.94,0.00,0.00,
"CA004057118","1942-02-17",3.02,-18.94,0.00,0.00,
"CA004057118","1942-02-18",17.06,-13.00,0.00,0.00,
"CA004057118","1942-02-19",24.08,10.04,36.00,36.00,
"CA004057118","1942-02-20",12.02,8.06,5.00,5.00,
"CA004057118","1942-02-21",6.08,1.04,15.00,15.00,
"CA004057118","1942-02-22",10.04,3.92,127.00,127.00,
"CA004057118","1942-02-23",10.94,3.02,30.00,30.00,
"CA004057118","1942-02-24",3.92,-16.06,5.00,5.00,
"CA004057118","1942-02-25",10.94,-7.96,0.00,0.00,
"CA004057118","1942-02-26",10.94,-14.98,0.00,0.00,
"CA004057118","1942-02-27",14.00,-5.08,0.00,0.00,
"CA004057118","1942-02-28",30.02,-0.04,0.00,0.00,
"CA004057118","1942-03-01",35.96,10.04,0.00,0.00,
"CA004057118","1942-03-02",33.98,3.02,0.00,0.00,
"CA004057118","1942-03-03",37.04,21.92,0.00,0.00,
"CA004057118","1942-03-04",41.00,19.94,0.00,0.00,
"CA004057118","1942-03-05",41.00,19.94,36.00,36.00,
"CA004057118","1942-03-06",32.00,24.98,15.00,15.00,
"CA004057118","1942-03-07",39.02,19.04,0.00,0.00,
"CA004057118","1942-03-08",39.92,24.98,0.00,0.00,
"CA004057118","1942-03-09",30.92,24.98,28.00,28.00,
"CA004057118","1942-03-10",30.02,21.02,5.00,5.00,
"CA004057118","1942-03-11",41.00,12.02,0.00,0.00,
"CA004057118","1942-03-12",39.92,19.94,0.00,0.00,
"CA004057118","1942-03-13",37.04,17.96,0.00,0.00,
"CA004057118","1942-03-14",35.96,26.96,0.00,0.00,
"CA004057118","1942-03-15",41.00,32.00,0.00,0.00,
"CA004057118","1942-03-16",39.02,28.94,0.00,0.00,
"CA004057118","1942-03-17",42.98,26.06,0.00,0.00,
"CA004057118","1942-03-18",35.96,28.94,25.00,25.00,
"CA004057118","1942-03-19",42.08,23.00,0.00,0.00,
"CA004057118","1942-03-20",46.04,21.92,0.00,0.00,
"CA004057118","1942-03-21",55.04,24.98,0.00,0.00,
"CA004057118","1942-03-22",53.06,26.06,0.00,0.00,
"CA004057118","1942-03-23",19.94,3.92,0.00,0.00,
"CA004057118","1942-03-24",17.06,10.04,15.00,15.00,
"CA004057118","1942-03-25",24.08,6.98,0.00,0.00,
"CA004057118","1942-03-26",28.94,8.06,0.00,0.00,
"CA004057118","1942-03-27",30.92,15.08,0.00,0.00,
"CA004057118","1942-03-28",33.98,10.94,25.00,25.00,
"CA004057118","1942-03-29",35.96,21.92,0.00,0.00,
"CA004057118","1942-03-30",53.96,19.04,0.00,0.00,
"CA004057118","1942-03-31",59.00,26.06,0.00,0.00,
"CA004057118","1942-04-01",50.00,32.00,0.00,0.00,
"CA004057118","1942-04-02",51.98,28.04,25.00,0.00,
"CA004057118","1942-04-03",50.00,32.00,5.00,0.00,
"CA004057118","1942-04-04",21.02,6.08,0.00,0.00,
"CA004057118","1942-04-05",46.04,15.98,127.00,127.00,
"CA004057118","1942-04-06",23.00,17.06,41.00,41.00,
"CA004057118","1942-04-07",30.02,1.04,0.00,0.00,
"CA004057118","1942-04-08",39.92,12.02,5.00,5.00,
"CA004057118","1942-04-09",30.02,8.96,0.00,0.00,
"CA004057118","1942-04-10",37.04,15.08,0.00,0.00,
"CA004057118","1942-04-11",51.08,30.92,0.00,0.00,
"CA004057118","1942-04-12",55.94,35.06,0.00,0.00,
"CA004057118","1942-04-13",55.94,30.92,0.00,0.00,
"CA004057118","1942-04-14",39.92,33.98,36.00,0.00,
"CA004057118","1942-04-15",37.94,28.94,5.00,0.00,
"CA004057118","1942-04-16",44.06,26.06,0.00,0.00,
"CA004057118","1942-04-17",57.92,30.02,0.00,0.00,
"CA004057118","1942-04-18",50.00,41.00,30.00,0.00,
"CA004057118","1942-04-19",66.02,28.04,0.00,0.00,
"CA004057118","1942-04-20",73.04,35.96,0.00,0.00,
"CA004057118","1942-04-21",86.00,53.06,0.00,0.00,
"CA004057118","1942-04-22",69.08,46.04,8.00,0.00,
"CA004057118","1942-04-23",59.00,42.08,13.00,0.00,
"CA004057118","1942-04-24",64.04,26.96,23.00,0.00,
"CA004057118","1942-04-25",48.02,39.02,201.00,0.00,
"CA004057118","1942-04-26",44.06,41.00,168.00,0.00,
"CA004057118","1942-04-27",42.08,33.08,8.00,0.00,
"CA004057118","1942-04-28",50.00,33.98,0.00,0.00,
"CA004057118","1942-04-29",57.92,28.94,0.00,0.00,
"CA004057118","1942-04-30",62.06,32.00,0.00,0.00,
"CA004057118","1942-05-01",55.04,32.00,0.00,0.00,
"CA004057118","1942-05-02",51.98,26.96,0.00,0.00,
"CA004057118","1942-05-03",53.96,26.06,0.00,0.00,
"CA004057118","1942-05-04",62.96,24.98,0.00,0.00,
"CA004057118","1942-05-05",68.00,28.94,0.00,0.00,
"CA004057118","1942-05-06",71.06,35.06,0.00,0.00,
"CA004057118","1942-05-07",73.94,35.96,0.00,0.00,
"CA004057118","1942-05-08",57.92,37.04,0.00,0.00,
"CA004057118","1942-05-09",64.94,33.08,0.00,0.00,
"CA004057118","1942-05-10",69.98,37.04,0.00,0.00,
"CA004057118","1942-05-11",71.96,35.96,0.00,0.00,
"CA004057118","1942-05-12",59.00,37.04,0.00,0.00,
"CA004057118","1942-05-13",60.98,26.06,0.00,0.00,
"CA004057118","1942-05-14",48.02,33.98,0.00,0.00,
"CA004057118","1942-05-15",46.94,28.04,0.00,0.00,
"CA004057118","1942-05-16",59.00,19.04,0.00,0.00,
"CA004057118","1942-05-17",62.96,28.94,0.00,0.00,
"CA004057118","1942-05-18",64.04,32.00,0.00,0.00,
"CA004057118","1942-05-19",64.94,32.00,3.00,0.00,
"CA004057118","1942-05-20",66.02,39.02,0.00,0.00,
"CA004057118","1942-05-21",71.96,33.98,0.00,0.00,
"CA004057118","1942-05-22",75.02,48.02,0.00,0.00,
"CA004057118","1942-05-23",82.94,50.00,0.00,0.00,
"CA004057118","1942-05-24",77.00,53.06,0.00,0.00,
"CA004057118","1942-05-25",69.08,48.02,0.00,0.00,
"CA004057118","1942-05-26",66.92,39.02,10.00,0.00,
"CA004057118","1942-05-27",64.94,53.06,23.00,0.00,
"CA004057118","1942-05-28",51.98,37.04,51.00,0.00,
"CA004057118","1942-05-29",53.96,30.92,5.00,0.00,
"CA004057118","1942-05-30",64.94,30.92,0.00,0.00,
"CA004057118","1942-05-31",57.92,44.06,28.00,0.00,
"CA004057118","1942-06-01",68.00,48.02,0.00,0.00,
"CA004057118","1942-06-02",66.92,42.98,28.00,0.00,
"CA004057118","1942-06-03",73.04,39.02,0.00,0.00,
"CA004057118","1942-06-04",73.94,46.94,0.00,0.00,
"CA004057118","1942-06-05",80.06,46.94,0.00,0.00,
"CA004057118","1942-06-06",80.96,48.02,0.00,0.00,
"CA004057118","1942-06-07",82.94,48.92,0.00,0.00,
"CA004057118","1942-06-08",87.08,60.98,0.00,0.00,
"CA004057118","1942-06-09",87.98,60.98,0.00,0.00,
"CA004057118","1942-06-10",71.96,55.04,20.00,0.00,
"CA004057118","1942-06-11",51.98,39.92,0.00,0.00,
"CA004057118","1942-06-12",53.06,28.94,0.00,0.00,
"CA004057118","1942-06-13",71.96,32.00,0.00,0.00,
"CA004057118","1942-06-14",80.96,44.06,0.00,0.00,
"CA004057118","1942-06-15",84.02,53.06,25.00,0.00,
"CA004057118","1942-06-16",59.00,57.02,373.00,0.00,
"CA004057118","1942-06-17",53.96,44.96,56.00,0.00,
"CA004057118","1942-06-18",64.94,48.92,0.00,0.00,
"CA004057118","1942-06-19",55.04,46.04,411.00,0.00,
"CA004057118","1942-06-20",42.08,39.92,323.00,0.00,
"CA004057118","1942-06-21",57.02,39.02,0.00,0.00,
"CA004057118","1942-06-22",59.00,41.00,0.00,0.00,
"CA004057118","1942-06-23",60.98,33.98,0.00,0.00,
"CA004057118","1942-06-24",66.02,46.04,28.00,0.00,
"CA004057118","1942-06-25",71.96,50.00,0.00,0.00,
"CA004057118","1942-06-26",64.94,55.94,180.00,0.00,
"CA004057118","1942-06-27",69.08,57.02,170.00,0.00,
"CA004057118","1942-06-28",66.02,57.92,254.00,0.00,
"CA004057118","1942-06-29",73.94,57.92,0.00,0.00,
"CA004057118","1942-06-30",71.06,53.06,0.00,0.00,
"CA004057118","1942-07-01",73.94,44.06,0.00,0.00,
"CA004057118","1942-07-02",75.92,55.04,0.00,0.00,
"CA004057118","1942-07-03",69.08,55.04,0.00,0.00,
"CA004057118","1942-07-04",71.96,46.04,0.00,0.00,
"CA004057118","1942-07-05",71.96,50.00,0.00,0.00,
"CA004057118","1942-07-06",78.08,44.06,0.00,0.00,
"CA004057118","1942-07-07",80.96,53.96,0.00,0.00,
"CA004057118","1942-07-08",78.98,55.04,30.00,0.00,
"CA004057118","1942-07-09",75.02,55.04,0.00,0.00,
"CA004057118","1942-07-10",80.06,51.98,0.00,0.00,
"CA004057118","1942-07-11",71.96,53.06,188.00,0.00,